Home > Weather > Monticello > Past weeks

Flag for USA Weather for the Past 2 Weeks in Monticello, Kentucky, USA

Now
66 °F

Partly sunny.


Feels Like: 66 °F
Forecast: 43 / 68 °F
Wind: 10 mph from Northwest

Location: London-Corbin Airport-Magee Field

Current Time: May 6, 2016 at 7:22:26 PM

Latest Report: May 6, 2016 at 6:53 PM


Visibility: 10 mi

Pressure: 29.89 "Hg

Humidity: 39%

Dew Point: 40 °F

Location of MonticelloLocation

Historic Weather in Monticello — Graph

°F

Monticello Temperature Yesterday

Maximum temperature yesterday: 53 °F (at 2:53 PM)
Minimum temperature yesterday: 42 °F (at 4:53 AM)
Average temperature yesterday: 48 °F

High & Low Weather Summary for the Past Weeks

 TemperatureHumidityPressure
High84 °F (Apr 26, 4:53 PM)100% (May 1, 5:53 AM)30.11 "Hg (May 1, 5:53 AM)
Low41 °F (May 6, 6:53 AM)26% (Apr 24, 2:53 PM)29.67 "Hg (May 4, 5:53 PM)
Average62 °F72%29.91 "Hg
* Reported Apr 21 5:53 PM — May 6 5:53 PM, Monticello, Weather by CustomWeather, © 2016

Note: Actual official high and low records may vary slightly from our data, if they occured in-between our weather recording intervals... More about our weather records

Advertising

Monticello Weather History for the Previous 24 Hours

Scroll right to see more
 ConditionsComfort  
Time TempWeatherWind HumidityBarometerVisibility
5:53 PM
Fri, May 6
67 °FScattered clouds.9 mph35%29.88 "Hg10 mi
4:53 PM66 °FPassing clouds.12 mph32%29.89 "Hg10 mi
3:53 PM68 °FScattered clouds.14 mph31%29.90 "Hg10 mi
2:53 PM65 °FPartly sunny.15 mph34%29.93 "Hg10 mi
1:53 PM64 °FBroken clouds.12 mph38%29.94 "Hg10 mi
12:53 PM65 °FBroken clouds.10 mph42%29.95 "Hg10 mi
11:53 AM61 °FPartly sunny.10 mph46%29.96 "Hg10 mi
10:53 AM60 °FSunny.9 mph47%29.96 "Hg10 mi
9:53 AM57 °FSunny.7 mph58%29.96 "Hg10 mi
8:53 AM53 °FSunny.6 mph69%29.95 "Hg10 mi
7:53 AM47 °FSunny.No wind90%29.94 "Hg7 mi
6:53 AM41 °FFog.No wind89%29.92 "Hg5 mi
5:53 AM42 °FFog.No wind89%29.90 "Hg4 mi
4:53 AM44 °FPassing clouds.No wind89%29.89 "Hg7 mi
3:53 AM44 °FClear.No wind89%29.89 "Hg7 mi
2:53 AM44 °FClear.3 mph89%29.89 "Hg8 mi
1:53 AM45 °FClear.3 mph90%29.90 "Hg9 mi
12:53 AM45 °FClear.5 mph90%29.90 "Hg10 mi
11:53 PM
Thu, May 5
47 °FClear.7 mph86%29.90 "Hg10 mi
11:00 PM49 °FMostly cloudy.7 mph80%29.90 "Hg10 mi
9:53 PM50 °FMostly cloudy.6 mph74%29.89 "Hg10 mi
9:01 PM50 °FMostly cloudy.5 mph71%29.89 "Hg10 mi
8:53 PM50 °FMore clouds than sun.5 mph71%29.89 "Hg10 mi
7:53 PM51 °FOvercast.6 mph63%29.86 "Hg10 mi
Weather by CustomWeather, © 2016

See weather overviewHow to use our weather pages